Regional Weather Roundup
Issued by NWS

Home | Current Version | Previous Version | Graphics & Text | Print | Product List | Glossary On
Versions: 1 2 3 4 5 6 7 8 9 10 11 12 13 14 15 16 17 18 19 20 21 22 23 24 25 26
000
ASUS45 KTFX 111410
RWRMT
MONTANA REGIONAL WEATHER ROUNDUP
NATIONAL WEATHER SERVICE GREAT FALLS MT
700 AM MST MON DEC 11 2017

NOTE: "FAIR" INDICATES FEW OR NO CLOUDS BELOW 12000 FEET WITH NO
SIGNIFICANT WEATHER AND/OR OBSTRUCTIONS TO VISIBILITY.

MTZ001>007-043-111500-
WEST OF THE DIVIDE

CITY           SKY/WX    TMP DP  RH WIND       PRES   REMARKS
KALISPELL      CLOUDY    23  20  88 NW3       30.63S
MISSOULA       CLOUDY    17  14  88 W3        30.63S FOG
BUTTE          FAIR       9   4  80 CALM      30.52R
MULLAN PASS    FAIR      42  -7  12 SW5       30.48R
ANACONDA         N/A     16   9  73 W3        30.53R
DEER LODGE       N/A     10   9  92 CALM      30.56S
EUREKA           N/A    N/A N/A N/A MISG      30.68S
HAMILTON         N/A     12   9  85 CALM      30.60S VSB 1/4
LIBBY            N/A     21  19  93 CALM      30.64S
PLAINS           N/A     25  19  77 CALM      30.61R
RONAN            N/A     24  21  88 SE2       30.59R
$$

MTZ008-052>055-111500-
SOUTHWEST MONTANA

CITY           SKY/WX    TMP DP  RH WIND       PRES   REMARKS
BOZEMAN        FAIR      13   8  81 CALM      30.52R
DILLON         FAIR      21   9  59 SW13      30.51F WCI   9
W YELLOWSTONE  FAIR      -6 -11  77 CALM      30.60R
ENNIS          CLOUDY    23  12  63 S9        30.56R WCI  13
THREE FORKS      N/A      9   5  83 CALM      30.45R
TWIN BRIDGES     N/A     14   4  64 CALM      30.45R
$$

MTZ009-010-012-014-046-048-049-054-111500-
EAST SLOPES AND CENTRAL MONTANA

CITY           SKY/WX    TMP DP  RH WIND       PRES   REMARKS
CUT BANK       FAIR      21  13  71 SW5       30.38F
GREAT FALLS    FAIR      32  15  49 SW16      30.40F WCI  21
MALMSTROM AFB  FAIR      19  13  79 S3        30.42R
HELENA         FAIR      15  13  91 CALM      30.52S
BOWMANS CRNR   FAIR      30  13  48 SW15      30.40S WCI  19
CHOTEAU          N/A     30  16  55 SW8       30.41S WCI  23
FAIRFIELD      FAIR      32  14  47 SW3       30.40S
POWER          FAIR      25  13  61 NW3       30.39S
RAYNESFORD     FAIR      28  17  64 CALM      30.42S
ULM            FAIR      29  17  59 S3        30.42F
$$

MTZ011-013-016-021-045-047-050-051-111500-
NORTH CENTRAL MONTANA

CITY           SKY/WX    TMP DP  RH WIND       PRES   REMARKS
HAVRE          FAIR      22  16  78 SW9       30.41S WCI  12
LEWISTOWN      FAIR      26  17  68 E5        30.40S
N BAR RANCH    FAIR      37  12  35 W10       30.39S WCI  30
CHINOOK          N/A     25  18  74 W8        30.41R WCI  16
DENTON         FAIR      26  15  62 SW12      30.37S WCI  16
GEYSER         FAIR      35  16  46 SW16      30.39S WCI  25
GRASS RANGE    FAIR      35  17  48 W9        30.34S WCI  28
STANFORD       FAIR      29  16  58 CALM      30.40S
WINIFRED       FAIR      31  17  55 W10       30.38S WCI  22
$$

MTZ017>020-022>027-061-062-111500-
NORTHEAST MONTANA

CITY           SKY/WX    TMP DP  RH WIND       PRES   REMARKS
GLASGOW        FAIR      29  21  72 NW12      30.32R WCI  19
GLENDIVE       MOCLDY    34  25  69 NW16      30.28R WCI  24
JORDAN           N/A     31  19  61 W5        30.34R
SIDNEY         CLOUDY    37  30  75 NW14      30.26R WCI  28
WOLF POINT     FAIR      37  28  70 W13       30.31R WCI  29
MALTA          CLEAR     27  19  74 W8G14     30.38R WCI  18
PLENTYWOOD       N/A     36  30  80 NW20G26   30.22R WCI  25
POPLAR           N/A     37  27  65 W10G21    30.30R WCI  30
SCOBEY           N/A     36  24  62 W16       30.22R WCI  26
$$

MTZ028>42-056>058-111500-
SOUTHCENTRAL AND SOUTHEAST MONTANA

CITY           SKY/WX    TMP DP  RH WIND       PRES   REMARKS
BAKER          CLOUDY    35  28  75 NW22G35   30.27R WCI  23
BILLINGS       FAIR      36  16  44 W17       30.39F WCI  26
LIVINGSTON     FAIR      32  15  49 NW18      30.44S WCI  20
MILES CITY     FAIR      35  19  52 W13       30.35R WCI  26
BIG TIMBER     CLEAR     37  10  32 NW8       30.45R WCI  31
EKALAKA          N/A     32  21  64 NW15      30.22R WCI  22
FORSYTH          N/A     36  16  44 W10       30.37S WCI  28
LAUREL           N/A     28  18  64 W9        30.42F WCI  20
ROUNDUP          N/A     29  12  49 S3        30.26S
$$

REGIONAL REPORTS...DAKOTAS

CITY           SKY/WX    TMP DP  RH WIND       PRES   REMARKS
WILLISTON      CLOUDY    36  30  79 NW15      30.24R WCI  27
MINOT          CLOUDY    37  28  70 NW18G29   30.11R WCI  27
DICKINSON      CLOUDY    35  30  82 NW18G31   30.16R WCI  24
BEACH          CLOUDY    34  28  80 NW20      30.27R WCI  22
CROSBY         CLOUDY    34  32  93 NW16G26   30.21R WCI  23
TIOGA          CLOUDY    32  32 100 NW24      30.19R WCI  19
BISMARCK       CLOUDY    39  31  72 N16G33    30.09R WCI  30
GRAND FORKS    CLOUDY    26  24  92 N25G38    29.98R BLWGSNOWWCI  11
FARGO          CLOUDY    31  28  89 N36G49    29.89R WCI  15
BUFFALO SD       N/A     38  26  62 NW38G48   30.14R WCI  24
RAPID CITY     FAIR      44  16  32 NW40G52   30.17R
$$

REGIONAL REPORTS...WYOMING/IDAHO/WASHINGTON

CITY           SKY/WX    TMP DP  RH WIND       PRES   REMARKS
GILLETTE       FAIR      28  16  60 W9        30.34R WCI  19
SHERIDAN       FAIR      36  15  42 W13       30.38R WCI  27
BUFFALO WY     FAIR      41   9  26 N14G22    30.36R
CODY           FAIR      26  14  60 S5        30.42R
YELLOWSTONE LA   N/A      3   0  87 CALM      30.58F
IDAHO FALLS    FAIR       8   5  87 N5        30.60R
SALMON         CLOUDY    15  13  91 E7        30.74S WCI   5
BOISE          CLOUDY    23  21  92 CALM      30.67S
SPOKANE        CLOUDY    24  23  96 N5        30.58F
$$

REGIONAL REPORTS...ALBERTA

CITY           SKY/WX    TMP DP  RH WIND       PRES   REMARKS
EDMONTON       CLEAR     34  23  64 SW6       30.31S WCI  29
CALGARY        PTCLDY    25  14  63 NW6       30.36F WCI  18
LETHBRIDGE     CLEAR     21  16  79 SW7       30.38S WCI  13
MEDICINE HAT   PTCLDY    21  18  86 S5        30.40S
$$

REGIONAL REPORTS...SASKATCHEWAN

CITY           SKY/WX    TMP DP  RH WIND       PRES   REMARKS
SWIFT CURRENT  CLEAR     25  21  86 W10       30.30R WCI  15
REGINA         FLURRIES  32  30  93 NW16G24   30.23R WCI  21
SASKATOON      MOCLDY    34  32  93 W7        30.29R WCI  28
$$




USA.gov is the U.S. government's official web portal to all federal, state and local government web resources and services.